KC8YVF-1 Weather Reports


Display with metric or nautical units.
time (UTC)temp
F
wind
direction
speed
MPH
gust
MPH
rain 1hr
in
rain 24hr
in
rain mn
in
humidity
%
barometer
mb
20260505125009 53 338 0.0 0.0 0.00 0.00 0.00 60 991.1
20260505124508 53 0 0.0 0.0 0.00 0.00 0.00 61 991.1
20260505124008 53 338 0.0 0.0 0.00 0.00 0.00 62 991.1
20260505123851 53 338 0.0 0.0 0.00 0.00 0.00 62 991.1
20260505123510 53 338 0.0 0.0 0.00 0.00 0.00 63 991.1
20260505123008 53 338 0.0 0.0 0.00 0.00 0.00 65 991.5
20260505122510 52 315 0.0 0.0 0.00 0.00 0.00 67 991.5
20260505122350 52 315 0.0 0.0 0.00 0.00 0.00 68 991.5
20260505121009 50 338 0.0 0.0 0.00 0.00 0.00 71 990.9
20260505120850 50 315 0.0 0.0 0.00 0.00 0.00 71 990.8
20260505120509 50 0 0.0 0.0 0.00 0.00 0.00 71 990.8
20260505115509 49 23 0.0 0.0 0.00 0.00 0.00 73 990.6
20260505115352 49 0 0.0 0.0 0.00 0.00 0.00 73 990.6
20260505115009 49 0 0.0 0.0 0.00 0.00 0.00 73 990.6
20260505114510 49 338 0.0 0.0 0.00 0.00 0.00 73 990.5
20260505114009 49 338 0.0 0.0 0.00 0.00 0.00 73 990.8
20260505113850 49 338 0.0 0.0 0.00 0.00 0.00 74 990.8
20260505113508 49 338 0.0 0.0 0.00 0.00 0.00 74 990.5
20260505112509 48 338 0.0 0.0 0.00 0.00 0.00 74 990.4
20260505112350 48 338 0.0 0.0 0.00 0.00 0.00 74 990.2
20260505111508 48 338 0.0 0.0 0.00 0.00 0.00 74 990.1
20260505111010 48 338 0.0 0.0 0.00 0.00 0.00 74 990.1
20260505110850 48 338 0.0 0.0 0.00 0.00 0.00 74 989.8
20260505110509 48 338 0.0 0.0 0.00 0.00 0.00 74 989.8
20260505102010 49 338 0.0 0.0 0.00 0.00 0.00 73 989.5
20260505101508 49 23 0.0 0.0 0.00 0.00 0.00 73 989.1
20260505101008 49 0 0.0 0.0 0.00 0.00 0.00 72 989.1
20260505100851 49 0 0.0 0.0 0.00 0.00 0.00 72 988.9
20260505100009 49 0 0.0 0.0 0.00 0.00 0.00 72 988.8
20260505095509 49 45 0.0 0.0 0.00 0.00 0.00 71 988.8
20260505095352 49 45 0.0 0.0 0.00 0.00 0.00 71 988.8
20260505094510 49 23 0.0 0.0 0.00 0.00 0.00 71 988.8
20260505094009 50 23 0.0 0.0 0.00 0.00 0.00 71 988.4
20260505093850 50 23 0.0 0.0 0.00 0.00 0.00 71 988.7
20260505093509 50 113 0.0 0.0 0.00 0.00 0.00 71 988.3
20260505092510 50 0 0.0 0.0 0.00 0.00 0.00 71 988.1
20260505092351 50 45 0.0 0.0 0.00 0.00 0.00 71 988.1
20260505092008 50 45 0.0 0.0 0.00 0.00 0.00 70 988.1
20260505091509 51 23 0.0 0.0 0.00 0.00 0.00 70 988.0
20260505090850 51 45 0.0 0.0 0.00 0.00 0.00 70 987.8
20260505090508 51 68 0.0 0.0 0.00 0.00 0.00 70 987.8
20260505090008 52 90 0.0 0.0 0.00 0.00 0.00 69 987.8
20260505085510 53 23 0.0 0.0 0.00 0.00 0.00 69 987.8
20260505085351 53 45 0.0 0.0 0.00 0.00 0.00 69 987.8
20260505085009 54 315 0.0 0.0 0.00 0.00 0.00 69 987.2
20260505084510 55 338 0.0 0.0 0.00 0.00 0.00 69 987.1
20260505084008 57 68 0.0 0.0 0.00 0.00 0.00 69 986.9
20260505083851 57 68 0.0 0.0 0.00 0.00 0.00 68 987.1
20260505083509 58 23 0.0 0.0 0.00 0.00 0.00 67 987.1
20260505083008 59 0 0.0 0.0 0.00 0.00 0.00 66 987.0
20260505082510 60 0 0.0 0.0 0.00 0.00 0.00 64 986.7
20260505082351 60 293 0.0 0.0 0.00 0.00 0.00 65 986.7
20260505081009 60 248 0.0 0.0 0.00 0.00 0.00 66 986.6
20260505080851 60 248 0.0 0.0 0.00 0.00 0.00 67 986.2
20260505080510 60 270 0.0 0.0 0.00 0.00 0.00 68 986.1
20260505080009 61 248 0.0 0.0 0.00 0.00 0.00 68 986.1
20260505075509 61 293 0.0 0.0 0.00 0.00 0.00 69 986.1
20260505075351 61 270 0.0 0.0 0.00 0.00 0.00 69 986.1
20260505075009 61 270 0.0 0.0 0.00 0.00 0.00 70 985.9
20260505074508 61 270 0.0 0.0 0.00 0.00 0.00 70 986.1
20260505074010 61 270 0.0 0.0 0.00 0.00 0.00 70 985.9
20260505073851 61 248 0.0 0.0 0.00 0.00 0.00 71 985.7
20260505073509 61 248 0.0 0.0 0.00 0.00 0.00 70 985.7
20260505073009 62 293 0.0 0.0 0.00 0.00 0.00 69 985.4
20260505072509 62 270 0.0 0.0 0.00 0.00 0.00 69 985.4
20260505072352 62 225 0.0 0.0 0.00 0.00 0.00 69 985.4
20260505072010 62 270 0.0 0.0 0.00 0.00 0.00 69 985.4
20260505071008 62 270 0.0 0.0 0.00 0.00 0.00 68 985.4
20260505070852 62 203 0.0 0.0 0.00 0.00 0.00 68 985.4
20260505070508 62 270 0.0 0.0 0.00 0.00 0.00 68 985.4
20260505070008 62 270 0.0 0.0 0.00 0.00 0.00 68 985.3
20260505065508 63 225 0.0 0.0 0.00 0.00 0.00 67 985.4
20260505065351 63 248 0.0 0.0 0.00 0.00 0.00 67 985.4
20260505065009 63 225 0.0 0.0 0.00 0.00 0.00 67 985.4
20260505064509 63 203 0.0 0.0 0.00 0.00 0.00 66 985.4
20260505064009 63 248 0.0 0.0 0.00 0.00 0.00 66 985.4
20260505063850 63 270 0.0 0.0 0.00 0.00 0.00 66 985.3
20260505063509 63 248 0.0 0.0 0.00 0.00 0.00 66 985.1
20260505063008 64 270 0.0 0.0 0.00 0.00 0.00 65 985.4
20260505062510 64 203 0.0 0.0 0.00 0.00 0.00 65 985.4
20260505062351 64 180 0.0 0.0 0.00 0.00 0.00 65 985.4
20260505062010 64 180 0.0 0.0 0.00 0.00 0.00 65 985.1
20260505061008 64 293 0.0 0.0 0.00 0.00 0.00 64 985.4
20260505060850 64 225 0.0 0.0 0.00 0.00 0.00 64 985.4
20260505060508 64 203 0.0 0.0 0.00 0.00 0.00 63 985.4
20260505055509 65 225 0.0 0.0 0.00 0.00 0.00 63 985.1
20260505055352 65 270 0.0 0.0 0.00 0.00 0.00 63 985.4
20260505054508 65 135 0.0 0.0 0.00 0.00 0.00 62 985.1
20260505054010 65 248 0.0 0.0 0.00 0.00 0.00 62 985.1
20260505053851 65 203 0.0 0.0 0.00 0.00 0.00 62 985.1
20260505053510 65 203 0.0 0.0 0.00 0.00 0.00 62 985.1
20260505053009 65 203 0.0 0.0 0.00 0.00 0.00 62 985.1
20260505052510 65 225 0.0 0.0 0.00 0.00 0.00 62 985.2
20260505052351 65 203 0.0 0.0 0.00 0.00 0.00 62 985.1
20260505052009 65 248 0.0 0.0 0.00 0.00 0.00 62 985.1
20260505051510 65 203 0.0 0.0 0.00 0.00 0.00 62 985.1
20260505051008 65 270 0.0 0.0 0.00 0.00 0.00 62 985.1
20260505050851 65 270 0.0 0.0 0.00 0.00 0.00 62 985.1
20260505050510 65 270 0.0 0.0 0.00 0.00 0.00 63 985.0
20260505041508 66 158 0.0 0.0 0.00 0.00 0.00 59 984.0
20260505041010 66 225 0.0 0.0 0.00 0.00 0.00 58 984.0
20260505040851 66 203 0.0 0.0 0.00 0.00 0.00 58 984.0
20260505035510 66 248 0.0 0.0 0.00 0.00 0.00 56 984.0
20260505035351 66 293 0.0 0.0 0.00 0.00 0.00 56 984.0
20260505034008 68 315 0.0 0.0 0.00 0.00 0.00 56 984.0
20260505033852 68 293 0.0 0.0 0.00 0.00 0.00 57 984.0
20260505033510 68 293 0.0 0.0 0.00 0.00 0.00 59 984.2
20260505033008 68 248 0.0 0.0 0.00 0.00 0.00 60 984.3
20260505032509 68 293 0.0 0.0 0.00 0.00 0.00 60 984.4
20260505032352 68 225 0.0 0.0 0.00 0.00 0.00 60 984.4
20260505032008 68 203 0.0 0.0 0.00 0.00 0.00 59 984.2
20260505031509 68 225 0.0 0.0 0.00 0.00 0.00 59 983.9
20260505031009 67 225 0.0 0.0 0.00 0.00 0.00 58 983.7
20260505030852 67 225 0.0 0.0 0.00 0.00 0.00 58 983.7
20260505030009 67 270 0.0 0.0 0.00 0.00 0.00 57 983.7
20260505025509 67 203 0.0 0.0 0.00 0.00 0.00 57 983.4
20260505025352 67 225 0.0 0.0 0.00 0.00 0.00 56 983.4
20260505025009 66 180 0.0 0.0 0.00 0.00 0.00 55 983.1
20260505024509 66 248 0.0 0.0 0.00 0.00 0.00 54 983.0
20260505024010 66 180 0.0 0.0 0.00 0.00 0.00 53 983.0
20260505023852 66 180 0.0 0.0 0.00 0.00 0.00 52 983.1
20260505023508 66 180 0.0 0.0 0.00 0.00 0.00 51 983.4
20260505023009 66 180 0.0 0.0 0.00 0.00 0.00 51 983.4
20260505022509 66 180 0.0 0.0 0.00 0.00 0.00 50 983.4
20260505022351 66 180 0.0 0.0 0.00 0.00 0.00 50 983.6
20260505022008 66 180 0.0 0.0 0.00 0.00 0.00 49 983.7
20260505021509 66 158 0.0 0.0 0.00 0.00 0.00 49 983.7
20260505020852 66 158 0.0 0.0 0.00 0.00 0.00 48 983.7
20260505020509 66 158 0.0 0.0 0.00 0.00 0.00 48 983.6
20260505020008 67 158 0.0 0.0 0.00 0.00 0.00 47 983.4
20260505015510 67 158 0.0 0.0 0.00 0.00 0.00 46 983.4
20260505015351 67 158 0.0 0.0 0.00 0.00 0.00 46 983.4
20260505015010 67 158 0.0 0.0 0.00 0.00 0.00 46 983.4
20260505014508 67 180 0.0 0.0 0.00 0.00 0.00 45 983.4
20260505013851 67 180 0.0 0.0 0.00 0.00 0.00 45 983.4
20260505013509 67 180 0.0 0.0 0.00 0.00 0.00 44 983.4
20260505012509 68 180 0.0 0.0 0.00 0.00 0.00 43 983.4
20260505012352 68 180 0.0 0.0 0.00 0.00 0.00 43 983.4
20260505012008 68 180 0.0 0.0 0.00 0.00 0.00 43 983.4
20260505011510 68 180 0.0 0.0 0.00 0.00 0.00 42 983.4
20260505011010 68 180 0.0 0.0 0.00 0.00 0.00 42 983.3
20260505010851 68 180 0.0 0.0 0.00 0.00 0.00 42 983.1
20260505010510 69 180 0.0 0.0 0.00 0.00 0.00 41 983.0
20260505010009 69 180 0.0 0.0 0.00 0.00 0.00 41 983.0
20260505005509 69 180 0.0 0.0 0.00 0.00 0.00 41 983.1
20260505005351 69 180 0.0 0.0 0.00 0.00 0.00 41 983.3
20260505005009 70 180 0.0 0.0 0.00 0.00 0.00 40 983.2
20260505004508 70 180 0.0 0.0 0.00 0.00 0.00 40 983.4
20260505004010 70 180 0.0 0.0 0.00 0.00 0.00 40 983.2
20260505003852 70 225 0.0 0.0 0.00 0.00 0.00 40 983.3
20260505003508 70 203 0.0 0.0 0.00 0.00 0.00 39 983.4
20260505003010 71 203 0.0 0.0 0.00 0.00 0.00 39 983.3
20260505002509 71 248 0.0 0.0 0.00 0.00 0.00 39 983.3
20260505002352 71 180 0.0 0.0 0.00 0.00 0.00 38 983.4
20260505001509 71 248 0.0 0.0 0.00 0.00 0.00 38 983.4
20260505001009 72 203 0.0 0.0 0.00 0.00 0.00 38 983.4
20260505000850 72 225 0.0 0.0 0.00 0.00 0.00 38 983.4
20260504235509 73 248 0.0 0.0 0.00 0.00 0.00 36 983.4
20260504235352 73 248 0.0 0.0 0.00 0.00 0.00 37 983.4
20260504234508 73 225 0.0 0.0 0.00 0.00 0.00 37 983.4
20260504233852 74 248 0.0 0.0 0.00 0.00 0.00 36 983.7
20260504233508 74 158 0.0 0.0 0.00 0.00 0.00 36 983.7
20260504233010 74 248 0.0 0.0 0.00 0.00 0.00 36 983.7
20260504232510 74 270 0.0 0.0 0.00 0.00 0.00 37 983.8
20260504232351 74 225 0.0 0.0 0.00 0.00 0.00 37 983.8
20260504232010 74 225 0.0 0.0 0.00 0.00 0.00 36 983.8
20260504231010 74 225 0.0 0.0 0.00 0.00 0.00 37 984.0
20260504230852 74 270 0.0 0.0 0.00 0.00 0.00 37 984.0
20260504230510 74 248 0.0 0.0 0.00 0.18 0.00 37 984.0
20260504230011 74 248 0.0 0.0 0.00 0.18 0.00 37 984.2
20260504225508 75 270 0.0 0.0 0.00 0.18 0.00 37 984.2
20260504225352 75 248 0.0 0.0 0.00 0.18 0.00 37 984.4
20260504225009 75 270 0.0 0.0 0.00 0.18 0.00 37 984.4
20260504224008 76 248 0.0 0.0 0.00 0.18 0.00 36 984.4
20260504223851 76 225 0.0 0.0 0.00 0.18 0.00 36 984.4
20260504223509 76 225 0.0 0.0 0.00 0.18 0.00 34 984.4
20260504223009 76 248 0.0 0.0 0.00 0.18 0.00 34 984.4
20260504222509 76 225 0.0 0.0 0.00 0.18 0.00 34 984.4
20260504222352 76 270 0.0 0.0 0.00 0.18 0.00 34 984.6
20260504221509 76 225 0.0 0.0 0.00 0.18 0.00 33 984.7
20260504221009 77 203 0.0 0.0 0.00 0.18 0.00 34 984.5
20260504220850 77 180 0.0 0.0 0.00 0.18 0.00 34 984.6
20260504220509 77 158 0.0 0.0 0.00 0.18 0.00 34 984.6
20260504220010 77 158 0.0 0.0 0.00 0.18 0.00 33 984.6
20260504215509 77 225 0.0 0.0 0.00 0.18 0.00 33 984.6
20260504215350 77 203 0.0 0.0 0.00 0.18 0.00 33 984.6
20260504215009 77 203 0.0 0.0 0.00 0.18 0.00 33 984.7
20260504214509 77 225 0.0 0.0 0.00 0.18 0.00 33 984.7
20260504214008 76 225 0.0 0.0 0.00 0.18 0.00 33 984.7
20260504213851 76 158 0.0 0.0 0.00 0.18 0.00 33 984.7
20260504212509 76 225 0.0 0.0 0.00 0.18 0.00 33 984.7
20260504212350 76 203 0.0 0.0 0.00 0.18 0.00 33 984.7
20260504211510 76 180 0.0 0.0 0.00 0.18 0.00 32 984.7
20260504211010 77 270 0.0 0.0 0.00 0.18 0.00 31 984.9
20260504210851 77 248 0.0 0.0 0.00 0.18 0.00 31 985.1
20260504210009 77 203 0.0 0.0 0.00 0.18 0.00 31 985.1
20260504205509 77 248 0.0 0.0 0.00 0.18 0.00 31 985.1
20260504205352 78 225 0.0 0.0 0.00 0.18 0.00 31 985.1
20260504204510 78 248 0.0 0.0 0.00 0.18 0.00 31 985.1
20260504204010 78 180 0.0 0.0 0.00 0.18 0.00 31 985.1
20260504203850 78 225 0.0 0.0 0.00 0.18 0.00 31 985.1
20260504203009 78 225 0.0 0.0 0.00 0.18 0.00 31 985.1
20260504202351 77 248 0.0 0.0 0.00 0.18 0.00 32 985.1
20260504202010 77 270 0.0 0.0 0.00 0.18 0.00 31 985.1
20260504201509 77 225 0.0 0.0 0.00 0.18 0.00 31 985.1
20260504201009 77 225 0.0 0.0 0.00 0.18 0.00 30 985.1
20260504200852 77 180 0.0 0.0 0.00 0.18 0.00 31 985.1
20260504200509 77 270 0.0 0.0 0.00 0.18 0.00 31 985.1
20260504195508 77 270 0.0 0.0 0.00 0.18 0.00 31 985.1
20260504195351 76 270 0.0 0.0 0.00 0.18 0.00 31 985.1
20260504195010 77 270 0.0 0.0 0.00 0.18 0.00 30 985.4
20260504194009 77 180 0.0 0.0 0.00 0.18 0.00 31 985.3
20260504193852 77 203 0.0 0.0 0.00 0.18 0.00 31 985.1
20260504193508 77 203 0.0 0.0 0.00 0.18 0.00 30 985.4
20260504193010 77 180 0.0 0.0 0.00 0.18 0.00 31 985.4
20260504192510 77 338 0.0 0.0 0.00 0.18 0.00 32 985.4
20260504192351 77 293 0.0 0.0 0.00 0.18 0.00 31 985.4
20260504191510 78 248 0.0 0.0 0.00 0.18 0.00 32 985.4
20260504190851 77 225 0.0 0.0 0.00 0.18 0.00 31 985.6
20260504190511 77 225 0.0 0.0 0.00 0.18 0.00 32 985.7
20260504190009 77 113 0.0 0.0 0.00 0.18 0.00 34 985.4
20260504185509 77 203 0.0 0.0 0.00 0.18 0.00 35 985.7
20260504185352 77 248 0.0 0.0 0.00 0.18 0.00 35 985.7
20260504185009 77 158 0.0 0.0 0.00 0.18 0.00 33 985.7
20260504184510 77 225 0.0 0.0 0.00 0.18 0.00 32 986.0
20260504184009 77 270 0.0 0.0 0.00 0.18 0.00 32 985.7
20260504183852 77 270 0.0 0.0 0.00 0.18 0.00 32 985.7
20260504183508 77 270 0.0 0.0 0.00 0.18 0.00 33 985.7
20260504183009 76 225 0.0 0.0 0.00 0.18 0.00 33 985.7
20260504182510 76 158 0.0 0.0 0.00 0.18 0.00 33 986.1
20260504182350 76 248 0.0 0.0 0.00 0.18 0.00 34 985.8
20260504182010 76 270 0.0 0.0 0.00 0.18 0.00 34 986.0
20260504181509 76 203 0.0 0.0 0.00 0.18 0.00 34 986.1
20260504181009 76 248 0.0 0.0 0.00 0.18 0.00 35 985.9
20260504180851 76 270 0.0 0.0 0.00 0.18 0.00 36 986.1
20260504180509 76 180 0.0 0.0 0.00 0.18 0.00 35 986.1
20260504180009 76 270 0.0 0.0 0.00 0.18 0.00 37 986.1
20260504175351 76 225 0.0 0.0 0.00 0.18 0.00 38 986.3
20260504175010 76 225 0.0 0.0 0.00 0.18 0.00 38 986.4
20260504174509 76 270 0.0 0.0 0.00 0.18 0.00 39 986.4
20260504174009 76 158 0.0 0.0 0.00 0.18 0.00 39 986.4
20260504173852 76 248 0.0 0.0 0.00 0.18 0.00 39 986.5
20260504173509 75 158 0.0 0.0 0.00 0.18 0.00 39 986.7
20260504173009 75 180 0.0 0.0 0.00 0.18 0.00 40 986.7
20260504172352 75 248 0.0 0.0 0.00 0.18 0.00 40 986.7
20260504172009 75 180 0.0 0.0 0.00 0.18 0.00 39 986.7
20260504171510 75 270 0.0 0.0 0.00 0.18 0.00 40 986.7
20260504171010 75 225 0.0 0.0 0.00 0.18 0.00 41 986.7
20260504170851 75 180 0.0 0.0 0.00 0.18 0.00 41 986.7
20260504170510 74 225 0.0 0.0 0.00 0.18 0.00 41 986.7
20260504151009 63 180 0.0 0.0 0.00 0.18 0.00 62 988.8
20260504150851 63 180 0.0 0.0 0.00 0.18 0.00 63 988.8
20260504150509 63 158 0.0 0.0 0.00 0.18 0.00 63 988.8
20260504140852 59 180 0.0 0.0 0.00 0.18 0.00 68 989.1
20260504140509 59 203 0.0 0.0 0.00 0.18 0.00 69 989.1